Overview Statistics Trail Chart Weather Telemetry Raw packets
 

This is the latest recevied weather packets stored in our database for station/object 4S6DRJ-13. If no packets are shown the sender has not sent any weather packets the latest 10 day(s).

<< 345 346 347 348 349 350 351 >>
Time Temp. Humidity Pressure Rain* Wind** Luminosity Snow
1787949910 27.78° C 86% 1009.4 hPa 0 mm 1.79 m/s, 81° 0 W/m² -
1787949849 27.78° C 86% 1009.4 hPa 0 mm 0.89 m/s, 295° 0 W/m² -
1787949789 27.78° C 86% 1009.5 hPa 0 mm 0.89 m/s, 155° 0 W/m² -
1787949728 27.78° C 86% 1009.3 hPa 0 mm 1.79 m/s, 279° 0 W/m² -
1787949667 27.78° C 86% 1009.5 hPa 0 mm 0 m/s 0 W/m² -
1787949606 27.78° C 86% 1009.5 hPa 0 mm 1.34 m/s, 240° 0 W/m² -
1787949545 27.78° C 86% 1009.3 hPa 0 mm 0.89 m/s, 244° 0 W/m² -
1787949484 27.78° C 86% 1009.3 hPa 0 mm 0.89 m/s, 273° 0 W/m² -
1787949423 27.78° C 86% 1009.3 hPa 0 mm 0.89 m/s, 237° 0 W/m² -
1787949361 27.78° C 86% 1009.3 hPa 0 mm 0 m/s 0 W/m² -
1787949301 27.78° C 86% 1009.2 hPa 0 mm 0.89 m/s, 200° 0 W/m² -
1787949240 27.78° C 86% 1009.3 hPa 0 mm 0.89 m/s, 182° 0 W/m² -
1787949179 27.78° C 86% 1009.3 hPa 0 mm 1.79 m/s, 231° 0 W/m² -
1787949118 27.78° C 86% 1009.6 hPa 0 mm 1.79 m/s, 256° 0 W/m² -
1787949057 27.78° C 86% 1009.4 hPa 0 mm 0.45 m/s, 250° 0 W/m² -
1787948996 27.78° C 86% 1009.4 hPa 0 mm 1.79 m/s, 305° 0 W/m² -
1787948935 27.78° C 86% 1009.5 hPa 0 mm 0.89 m/s, 291° 0 W/m² -
1787948874 27.78° C 86% 1009.4 hPa 0 mm 0.45 m/s, 163° 0 W/m² -
1787948823 27.78° C 86% 1009.3 hPa 0 mm 1.34 m/s, 229° 0 W/m² -
1787948752 27.78° C 86% 1009.4 hPa 0 mm 1.34 m/s, 207° 0 W/m² -
1787948691 27.78° C 86% 1009.5 hPa 0 mm 0.45 m/s, 210° 0 W/m² -
1787948630 27.78° C 86% 1009.6 hPa 0 mm 1.79 m/s, 196° 0 W/m² -
1787948570 27.78° C 86% 1009.6 hPa 0 mm 1.34 m/s, 223° 0 W/m² -
1787948508 27.78° C 86% 1009.5 hPa 0 mm 1.79 m/s, 201° 0 W/m² -
1787948447 27.78° C 86% 1009.6 hPa 0 mm 0.45 m/s, 242° 0 W/m² -

* Rain latest hour (hover to see other rain measurements)
** Current wind speed in m/s (hover to see current wind gust speed)